Wind_Speed
62 65 67 68 72 75 77 80 82 84 85 85 83 82 80 80 80 81 82 82 82 82 84 84 84 85 86 87 87 88 89 91 91 87 93 93 93 93 87 85 87 87 91
66 66 69 73 76 80 83 84 85 84 83 82 81 82 82 83 83 83 84 86 86 86 86 88 88 88 89 91 91 92 93 94 96 94 89 92 93 95 95 91 86 88 90
69 71 74 78 82 85 87 85 83 82 82 82 83 84 85 84 85 86 87 88 90 91 90 89 89 89 88 87 87 87 88 90 92 95 93 97 98 97 96 96 93 89 88
73 76 80 84 87 87 86 84 83 82 83 84 84 85 85 86 88 90 91 91 91 88 85 81 77 75 74 74 74 75 75 77 80 83 85 86 90 95 100 100 98 96 92
79 81 84 86 85 85 83 82 83 84 85 85 85 87 88 88 88 86 84 81 77 74 71 69 67 67 68 68 69 68 69 70 71 72 72 73 75 81 88 95 98 98 97
82 82 81 80 82 82 82 83 84 84 86 86 87 86 83 79 75 72 70 67 66 65 64 64 66 68 68 69 69 70 70 69 69 69 68 68 67 71 73 78 86 90 94
80 78 78 79 79 81 83 84 85 86 86 83 80 73 69 67 64 63 62 62 62 63 65 67 69 71 71 71 69 66 64 64 65 65 64 65 65 67 68 68 71 77 80
75 74 76 79 81 83 86 87 85 81 77 72 67 63 61 60 60 60 61 62 64 66 69 70 71 71 70 65 60 57 57 54 54 57 56 53 55 58 60 62 65 66 67
73 75 79 82 86 85 82 79 76 71 66 63 60 59 58 59 60 62 64 66 67 69 70 69 68 66 61 57 55 51 45 45 49 49 46 42 39 39 40 42 47 56 60
76 81 83 80 75 75 74 70 66 63 60 59 58 58 60 61 63 65 66 68 69 68 66 63 59 57 57 55 50 45 41 41 41 44 42 43 44 43 42 42 42 42 45
79 74 70 70 70 69 66 63 60 58 58 58 59 60 61 62 63 65 66 66 64 61 57 55 57 57 54 49 45 43 41 39 37 39 40 40 42 44 45 47 48 48 47
67 67 66 67 66 63 60 59 59 60 59 59 60 60 61 62 62 62 60 59 58 56 56 55 55 54 51 45 42 42 42 40 39 38 39 41 42 43 46 48 50 51 50
64 64 64 63 62 61 59 59 59 59 59 59 60 60 60 60 60 59 58 57 58 57 54 54 55 53 49 42 42 43 43 43 42 41 41 42 44 45 47 50 51 53 53
61 61 61 61 61 60 60 60 61 61 61 61 60 60 59 59 60 60 59 56 57 58 56 55 53 51 45 41 43 44 43 43 43 43 43 45 47 48 50 52 53 55 55
59 59 59 59 59 60 61 61 61 59 58 58 59 61 62 62 61 60 57 55 57 58 57 53 49 44 39 40 41 41 42 43 44 45 46 47 48 49 50 53 54 56 58
57 57 57 57 57 57 57 56 55 57 57 60 61 62 63 62 59 55 54 55 56 57 55 51 45 37 36 37 38 40 42 43 44 44 46 47 48 48 48 48 50 50 51
56 56 55 55 55 54 55 57 59 60 60 63 66 67 65 62 57 52 53 55 55 54 52 46 38 33 34 35 37 38 38 40 41 43 44 44 43 40 35 33 34 38 43
55 55 54 53 56 60 63 63 63 64 65 70 73 70 66 62 55 52 53 56 55 54 48 42 32 32 33 34 34 34 36 38 39 39 39 37 34 29 30 33 35 40 43
55 55 55 58 60 63 65 65 65 68 69 77 78 70 64 60 55 52 53 55 54 53 46 33 31 31 31 31 31 32 34 35 35 35 34 32 31 30 32 34 36 39 40
56 59 61 63 64 67 68 67 70 76 79 82 73 65 60 56 53 53 55 55 51 49 35 31 31 29 28 28 29 31 33 34 34 33 33 30 30 32 33 33 37 35 40
63 63 64 65 69 70 70 74 79 84 88 76 64 61 61 59 54 50 52 50 47 40 29 29 29 27 25 26 28 31 32 32 32 31 31 31 28 28 29 32 32 36 30
64 67 67 69 69 72 79 85 88 90 77 66 64 63 62 60 57 51 44 41 39 33 28 28 27 25 25 26 28 30 31 31 31 31 30 29 28 28 28 29 30 29 28
68 67 68 70 74 80 84 91 79 69 68 67 65 62 57 51 50 49 45 41 37 30 27 25 25 24 24 25 27 28 29 29 30 29 29 28 27 26 25 25 26 28 28
67 71 75 76 80 87 86 75 73 70 72 68 63 57 52 47 43 40 36 34 30 27 25 22 22 21 22 24 26 28 28 28 28 27 27 27 27 26 25 24 23 25 25
72 77 75 79 86 87 73 71 70 66 59 50 45 42 41 39 36 33 31 28 26 24 21 19 18 18 20 23 25 27 28 28 27 26 26 26 25 25 25 24 23 23 22
69 74 77 83 82 69 66 63 57 48 39 34 29 30 30 29 28 28 26 24 22 21 18 16 15 17 19 22 25 26 27 28 26 24 25 25 24 24 24 23 23 22 22
Wind_Direction
290 289 289 290 292 293 292 292 291 290 290 290 291 291 291 291 290 290 290 289 289 288 287 286 285 284 283 281 280 278 276 274 272 267 267 264 263 264 262 259 259 259 261
294 294 293 291 292 291 289 290 290 293 293 294 294 294 293 292 292 292 292 291 291 290 289 289 288 287 285 284 283 281 280 278 275 272 267 266 264 262 261 260 256 255 256
294 293 291 291 290 290 291 293 294 295 294 294 294 294 293 293 294 294 294 294 293 293 292 291 290 288 287 285 284 282 280 278 276 274 271 267 264 262 261 260 258 255 252
291 291 291 290 289 291 293 294 295 294 295 295 295 294 294 295 295 294 294 293 293 292 291 289 288 286 285 283 282 282 280 279 277 276 274 270 266 262 260 258 257 257 254
291 290 289 290 291 293 294 295 294 295 295 295 295 295 295 294 294 293 292 291 289 289 289 288 288 288 287 287 286 284 282 280 278 277 276 273 270 266 263 259 256 254 254
288 289 290 293 294 293 294 294 294 295 295 296 295 294 294 294 293 291 291 290 290 290 291 290 291 291 290 289 288 287 285 282 280 277 275 273 272 269 267 263 259 256 252
290 291 292 291 292 293 294 294 295 296 295 295 295 295 294 292 292 291 291 291 292 293 294 294 294 294 293 292 291 289 287 285 282 279 276 273 270 268 267 265 262 260 256
290 292 292 291 293 295 295 296 295 295 296 296 295 294 293 292 292 293 293 294 295 295 296 296 296 295 294 294 292 290 288 287 285 287 283 278 273 270 269 266 263 261 258
291 291 291 294 295 295 295 295 295 296 295 295 295 295 294 294 294 295 295 296 296 296 296 297 296 295 295 295 293 290 287 287 287 289 284 278 274 276 274 270 266 262 259
291 292 293 294 294 295 295 296 295 296 296 296 295 294 295 295 296 296 297 296 297 298 298 297 295 294 294 294 291 288 284 283 283 288 286 276 273 275 272 273 272 270 267
291 292 294 295 296 296 296 296 296 296 296 296 296 296 295 295 296 296 297 298 298 299 298 297 296 296 294 291 285 284 286 286 284 284 284 280 275 274 272 273 274 272 268
292 295 295 295 296 296 296 296 296 297 297 296 296 295 295 296 297 299 299 300 300 300 300 298 296 296 294 288 282 286 290 291 291 288 283 280 279 276 275 275 275 275 274
294 295 295 294 295 295 295 295 295 296 295 294 294 295 296 298 299 299 300 300 301 301 302 302 300 297 293 285 285 287 289 290 290 290 287 283 279 277 276 275 275 274 274
294 293 293 293 294 294 294 294 294 295 295 295 296 297 298 298 298 298 300 299 300 301 303 302 297 294 288 283 284 285 287 288 288 288 287 286 284 281 278 276 274 272 272
293 292 293 293 293 294 295 295 294 295 297 299 300 300 299 298 297 297 297 297 298 300 301 301 296 290 280 282 285 287 291 293 293 292 290 288 288 285 281 277 274 271 271
292 292 292 293 293 292 292 294 297 299 301 302 304 304 303 299 295 293 291 292 296 300 302 299 295 282 279 284 288 292 293 294 295 296 296 294 292 289 285 281 276 274 274
291 292 292 292 292 294 294 295 296 299 303 306 306 306 304 298 292 287 287 291 298 302 302 298 289 279 283 287 289 292 295 299 301 301 302 300 298 296 291 286 282 282 283
292 293 295 295 294 293 295 297 298 300 303 307 306 304 300 296 290 285 285 290 298 302 300 295 282 284 287 290 293 296 300 304 306 308 308 303 300 295 291 290 290 292 292
294 293 294 295 295 296 296 295 297 301 301 304 303 296 293 291 287 283 284 288 295 300 299 285 283 287 289 292 295 299 303 307 308 312 312 302 294 294 298 293 296 298 293
292 291 293 295 295 297 296 298 299 300 301 303 297 291 289 289 287 280 281 285 293 298 288 281 284 286 289 294 299 302 305 309 312 311 316 308 299 296 301 299 304 302 300
292 293 294 295 296 298 299 300 298 299 302 296 290 286 285 285 286 282 281 283 290 292 278 284 283 285 290 296 301 303 305 307 311 312 312 315 308 303 304 308 310 312 307
292 294 295 298 301 302 301 300 299 298 294 289 285 282 280 278 276 277 279 280 287 279 278 282 280 285 291 298 302 303 304 304 306 313 314 311 317 313 306 309 316 317 316
292 292 297 302 303 301 301 302 298 293 290 287 282 277 275 275 270 268 269 274 279 266 273 273 275 283 291 297 301 304 305 303 301 303 310 314 311 316 317 314 319 321 315
289 298 299 301 302 305 304 300 298 294 292 287 278 271 265 265 268 262 259 263 257 261 266 267 274 283 294 301 304 308 308 308 301 300 303 310 316 317 316 323 321 324 327
295 299 297 300 304 306 302 302 300 298 293 283 273 259 252 252 260 251 245 242 245 255 255 262 272 288 298 305 307 309 311 311 308 300 302 304 309 315 321 318 322 326 326
297 299 300 303 304 302 305 304 304 300 289 274 261 248 236 244 245 237 226 229 243 245 249 259 276 293 304 310 312 312 314 315 312 307 304 302 304 308 313 316 318 320 324
Height
5694 5691 5686 5681 5677 5670 5664 5658 5651 5645 5639 5633 5627 5621 5615 5609 5603 5598 5592 5587 5581 5576 5571 5567 5562 5557 5552 5547 5544 5541 5539 5534 5532 5550 5545 5548 5552 5553 5559 5564 5566 5568 5572
5679 5674 5668 5663 5656 5649 5643 5636 5630 5623 5617 5611 5605 5599 5592 5586 5580 5574 5568 5562 5556 5550 5545 5540 5534 5529 5524 5519 5515 5512 5509 5505 5502 5509 5521 5516 5517 5521 5525 5531 5538 5543 5545
5661 5655 5649 5642 5635 5629 5621 5614 5608 5602 5596 5590 5583 5576 5569 5563 5558 5551 5543 5536 5530 5523 5517 5512 5506 5500 5495 5489 5485 5481 5477 5474 5470 5470 5485 5484 5485 5487 5491 5496 5504 5513 5519
5642 5635 5629 5622 5615 5607 5600 5594 5587 5582 5575 5567 5561 5554 5547 5541 5534 5526 5520 5513 5505 5498 5490 5484 5479 5473 5468 5464 5460 5455 5452 5449 5444 5442 5446 5451 5449 5453 5454 5461 5470 5476 5487
5623 5616 5609 5602 5595 5587 5580 5572 5567 5560 5553 5546 5539 5531 5524 5517 5510 5502 5496 5490 5482 5476 5469 5464 5459 5453 5447 5443 5438 5434 5429 5426 5422 5419 5420 5420 5422 5419 5419 5425 5433 5443 5452
5602 5595 5588 5582 5573 5567 5559 5553 5546 5540 5532 5524 5516 5509 5501 5493 5487 5480 5474 5468 5463 5457 5452 5446 5439 5433 5428 5423 5418 5412 5407 5403 5401 5397 5397 5396 5398 5392 5393 5396 5400 5407 5422
5583 5575 5569 5562 5555 5548 5540 5533 5526 5518 5510 5502 5494 5487 5480 5473 5468 5462 5457 5451 5446 5440 5434 5428 5422 5414 5408 5402 5398 5392 5387 5382 5377 5373 5375 5374 5373 5370 5371 5373 5375 5379 5387
5563 5556 5549 5543 5536 5529 5520 5512 5505 5497 5490 5482 5475 5469 5463 5456 5452 5446 5440 5435 5430 5424 5417 5409 5402 5395 5388 5383 5379 5374 5369 5365 5359 5356 5353 5353 5351 5350 5349 5351 5354 5356 5360
5544 5536 5529 5523 5517 5509 5500 5491 5485 5478 5471 5464 5458 5452 5447 5441 5436 5430 5425 5419 5414 5406 5399 5392 5383 5376 5370 5365 5361 5358 5355 5351 5346 5342 5338 5337 5337 5336 5334 5333 5335 5337 5341
5524 5517 5510 5503 5496 5489 5481 5474 5467 5460 5455 5449 5444 5438 5432 5427 5420 5414 5408 5402 5396 5389 5382 5375 5368 5361 5356 5351 5346 5343 5342 5339 5335 5330 5326 5324 5324 5323 5321 5321 5322 5324 5324
5504 5498 5491 5484 5477 5470 5463 5457 5450 5445 5440 5434 5429 5423 5417 5412 5405 5398 5391 5385 5378 5373 5366 5360 5353 5347 5341 5337 5332 5329 5327 5325 5322 5318 5315 5313 5311 5309 5308 5308 5307 5307 5309
5487 5480 5473 5466 5460 5453 5447 5441 5435 5430 5424 5419 5413 5407 5401 5394 5389 5382 5375 5369 5362 5357 5352 5345 5338 5333 5328 5323 5320 5317 5314 5311 5308 5306 5303 5300 5298 5296 5294 5292 5291 5291 5292
5469 5462 5456 5449 5443 5436 5430 5425 5420 5414 5409 5403 5398 5392 5385 5379 5373 5366 5360 5354 5348 5342 5337 5329 5323 5318 5314 5311 5307 5305 5302 5299 5296 5293 5290 5287 5285 5283 5281 5278 5277 5275 5277
5451 5444 5438 5432 5426 5420 5414 5409 5404 5398 5393 5387 5382 5376 5370 5365 5358 5352 5345 5339 5333 5327 5322 5316 5309 5304 5300 5299 5296 5293 5290 5287 5283 5280 5277 5273 5269 5267 5264 5262 5261 5258 5260
5432 5427 5421 5415 5409 5403 5398 5393 5388 5382 5377 5371 5365 5360 5354 5349 5342 5336 5330 5324 5318 5313 5307 5301 5295 5291 5289 5286 5283 5280 5276 5273 5269 5265 5262 5258 5254 5251 5247 5243 5241 5241 5240
5415 5410 5405 5399 5394 5388 5383 5378 5372 5367 5361 5355 5349 5344 5338 5332 5326 5320 5315 5310 5305 5298 5292 5287 5281 5278 5277 5275 5272 5268 5264 5260 5256 5251 5247 5242 5238 5233 5229 5224 5222 5222 5222
5399 5394 5389 5384 5379 5374 5368 5362 5357 5350 5344 5339 5333 5326 5321 5315 5310 5305 5301 5296 5291 5285 5278 5273 5269 5267 5266 5263 5261 5257 5253 5248 5243 5238 5232 5226 5221 5217 5214 5211 5210 5209 5208
5383 5378 5373 5368 5363 5358 5352 5346 5340 5334 5328 5321 5315 5309 5303 5298 5294 5290 5287 5282 5278 5271 5266 5261 5259 5257 5255 5252 5249 5246 5242 5237 5231 5226 5220 5214 5210 5208 5205 5203 5200 5198 5194
5368 5363 5358 5352 5346 5341 5334 5328 5322 5316 5310 5305 5296 5288 5284 5281 5278 5275 5272 5269 5265 5259 5254 5250 5249 5247 5245 5242 5239 5235 5231 5227 5222 5216 5210 5206 5202 5199 5197 5193 5191 5186 5181
5352 5347 5341 5335 5329 5323 5316 5309 5302 5296 5290 5283 5276 5269 5264 5263 5261 5259 5257 5255 5252 5248 5244 5242 5239 5238 5236 5233 5229 5226 5222 5217 5212 5207 5202 5198 5194 5190 5187 5184 5179 5175 5169
5336 5330 5324 5318 5311 5304 5296 5288 5281 5273 5266 5259 5254 5250 5247 5246 5245 5243 5242 5240 5238 5236 5233 5232 5230 5229 5227 5224 5221 5217 5213 5209 5205 5200 5195 5191 5186 5182 5178 5175 5170 5163 5158
5318 5312 5305 5299 5291 5283 5274 5265 5255 5246 5238 5234 5231 5228 5226 5226 5227 5228 5228 5226 5225 5224 5224 5223 5221 5220 5218 5216 5213 5209 5205 5201 5197 5193 5188 5184 5179 5174 5170 5166 5161 5155 5150
5299 5293 5286 5279 5270 5261 5250 5239 5226 5218 5213 5208 5206 5205 5206 5206 5207 5211 5214 5214 5214 5213 5214 5214 5213 5212 5210 5208 5205 5202 5198 5194 5189 5186 5182 5177 5173 5169 5164 5159 5154 5149 5144
5280 5274 5266 5257 5248 5236 5223 5212 5202 5193 5186 5179 5177 5180 5184 5188 5191 5194 5198 5200 5202 5204 5205 5205 5206 5205 5202 5200 5197 5193 5190 5186 5182 5178 5175 5171 5167 5162 5158 5154 5149 5145 5139
5262 5255 5246 5236 5225 5212 5200 5188 5177 5166 5158 5153 5152 5157 5164 5172 5176 5180 5185 5189 5192 5195 5197 5198 5198 5196 5195 5192 5189 5185 5181 5178 5174 5170 5167 5164 5160 5157 5153 5149 5145 5140 5136
5243 5235 5226 5215 5203 5191 5180 5168 5157 5147 5139 5138 5139 5144 5152 5159 5164 5169 5175 5180 5184 5186 5189 5191 5190 5189 5187 5184 5181 5178 5174 5170 5167 5163 5160 5157 5154 5150 5147 5144 5140 5137 5133